[Iaude] MPEC F15: 2024 FD [a=2.09,e=0.56,i=3.6,H=27.2]

mpec at cfa.harvard.edu mpec at cfa.harvard.edu
Mon Mar 18 09:09:43 EDT 2024


M.P.E.C. 2024-F15                                Issued 2024 March 18, 13:07 UT

     The Minor Planet Electronic Circulars contain information on unusual
         minor planets, routine data on comets and natural satellites,
         and occasional editorial announcements.  They are published
    on behalf of Division F of the International Astronomical Union by the
          Minor Planet Center, Smithsonian Astrophysical Observatory,
                          Cambridge, MA 02138, U.S.A.
			  
             Prepared using the Tamkin Foundation Computer Network

                              MPC at CFA.HARVARD.EDU
            URL https://www.minorplanetcenter.net/    ISSN 1523-6714

                                    2024 FD                                     


Observations:
     K24F00D 1C2024 03 17.22954 09 33 26.37 -04 48 36.6          17.0 GVEF015703
     K24F00D 1C2024 03 17.23184 09 33 56.55 -04 48 24.1                VEF015703
     K24F00D 1C2024 03 17.23414 09 34 26.84 -04 48 11.1                VEF015703
     K24F00D* C2024 03 17.40554510 10 41.791-04 26 06.43         16.57oVEF015T08
     K24F00D  C2024 03 17.41099610 11 43.510-04 25 29.35         16.58oVEF015T08
     K24F00D  C2024 03 17.41626810 12 42.910-04 24 52.81         16.61oVEF015T08
     K24F00D  C2024 03 17.43070510 15 24.038-04 23 13.42         16.71oVEF015T08
     K24F00D KB2024 03 17.66897 10 56 27.53 -04 01 39.5          16.9 GVEF015P13
     K24F00D KB2024 03 17.68683 10 59 00.15 -03 59 31.1          16.5 GVEF015P13
     K24F00D KB2024 03 17.68919 10 59 20.00 -03 59 13.6          17.0 GVEF015P13
     K24F00D  C2024 03 18.04520311 43 27.70 -03 00 10.7                WEF015X09
     K24F00D  C2024 03 18.04629811 43 33.90 -03 00 04.9                WEF015X09
     K24F00D KC2024 03 18.05662311 43 32.443-03 21 16.09         17.1 GVEF015J95
     K24F00D KC2024 03 18.05694311 43 34.231-03 21 14.44         16.9 GVEF015J95
     K24F00D KC2024 03 18.06086311 43 56.194-03 20 50.82         17.0 GVEF015J95
     K24F00D KC2024 03 18.06148311 43 59.664-03 20 47.15         17.2 GVEF015J95
     K24F00D KB2024 03 18.10843 11 49 20.96 -03 11 03.2          16.9 GXEF015W42
     K24F00D KB2024 03 18.11305 11 49 45.14 -03 10 38.9          16.7 GXEF015W42
     K24F00D KB2024 03 18.11766 11 50 09.15 -03 10 14.6          16.6 GXEF015W42
     K24F00D KC2024 03 18.32090 12 06 22.882-02 55 58.62         19.3 GVEF015U52
     K24F00D KC2024 03 18.32248 12 06 29.441-02 55 51.92         19.0 GVEF015U52
     K24F00D KC2024 03 18.32404 12 06 35.911-02 55 44.08         19.1 GVEF015U52
     K24F00D KB2024 03 18.47698 12 17 32.39 -02 42 51.5          18.9 GXEF015Q06
     K24F00D KB2024 03 18.47928 12 17 40.72 -02 42 42.8          18.1 GXEF015Q06
     K24F00D KB2024 03 18.48153 12 17 48.90 -02 42 34.3          17.4 GXEF015Q06
     K24F00D KC2024 03 18.50996512 19 30.23 -02 40 36.2          18.0 GVEF015900
     K24F00D KC2024 03 18.51523112 19 48.47 -02 40 16.2          17.3 GVEF015900
     K24F00D KC2024 03 18.52049812 20 06.66 -02 39 55.5                VEF015900

Observer details:
703 Catalina Sky Survey.  Observer J. K. Hogan.  Measurers B. Gray, D. Rankin,
    F. C. Shelly.  0.68-m Schmidt + 10K CCD.
900 Moriyama.  Observer Y. Ikari.  0.26-m f/7.0 reflector + CMO.
J95 Great Shefford.  Observer P. Birtwhistle.  0.41-m f/6.3 Schmidt-Cassegrain
    + CCD.
P13 Baihuashan Observatory, Beijing.  Observers Z. Wang, B. Liu.  Measurer Z.
    Wang.  0.28-m f/2.2 reflector + CMO.
Q06 Tarui Observatory, Tarui.  Observer H. Watanabe.  0.35-m f/1.9 Schmidt-
    Cassegrain + CMO.
T08 ATLAS-MLO, Mauna Loa.  Observers L. Denneau, R. Siverd, J. Tonry, H.
    Weiland.  Measurers L. Denneau, N. Erasmus, A. Fitzsimmons, J. Robinson,
    R. Siverd, J. Tonry, H. Weiland.  0.5-m Reflector + CCD.
U52 Shasta Valley Observatory, Grenada.  Observers J. E. Rogers, B. Haeusler.
    Measurers J. E. Rogers, D. Parrott.  0.30-m f/5.2 Helin Telescope + CCD.
W42 Mind's Eye Observatory, Vero Beach.  Observer J. T. Grage.  0.30-m f/3.3
    SCT + CMO.
X09 Deep Random Survey, Rio Hurtado.  Observers A. Schnabel, D. Ruhela.
    Measurer S. Deen.  0.43-m reflector + CMOS.

Orbital elements:
2024 FD                                                  Earth MOID = 0.0030 AU
Epoch 2024 Mar. 31.0 TT = JDT 2460400.5                 Veres                   
M  13.92990              (2000.0)            P               Q                  
n   0.32654077     Peri.  320.51250     -0.75155873     -0.65966326             
a   2.0885479      Node   178.20966     +0.62002009     -0.70740328             
e   0.5574618      Incl.    3.60397     +0.22524332     -0.25382079             
P   3.02           H   27.20          G   0.15           U   7                  
Residuals in seconds of arc
240317 703  2.8+  1.2-    240318 X09  3.0+  1.6+    240318 U52  0.3-  0.6-
240317 703  0.7-  0.5-    240318 X09  2.6+  2.0+    240318 U52  0.6-  0.2-
240317 703  1.8-  0.6+    240318 J95  0.1+  0.1+    240318 Q06  0.4+  0.6+
240317 T08  0.0   0.2-    240318 J95  0.0   0.2-    240318 Q06  0.1-  0.0
240317 T08  0.3+  0.1-    240318 J95  0.0   0.0     240318 Q06  0.3+  0.5-
240317 T08  0.4+  0.4+    240318 J95  0.1+  0.0     240318 900  0.2-  0.5+
240317 T08  0.8-  0.0     240318 W42  0.6-  0.4+    240318 900  1.0-  0.2-
240317 P13  0.1-  1.1+    240318 W42  0.7-  0.1+    240318 900  0.7-  0.1-
240317 P13  0.2+  0.2-    240318 W42  0.3-  0.1-
240317 P13  1.2-  0.2+    240318 U52  0.5-  0.1+

Ephemeris:
2024 FD                  a,e,i = 2.09, 0.56, 4                   q = 0.9243
Date    TT    R. A. (2000) Decl.     Delta      r    Elong.  Phase     V
2024 02 17    02 07 17.6 -00 21 16   0.1702  0.9226    62.8   107.8    27.2
...
2024 03 03    02 25 37.9 -00 05 11   0.08213 0.9439    52.8   123.2    26.7
...
2024 03 11    02 48 01.8 -00 26 05   0.03520 0.9715    50.7   127.7    25.4
...
2024 03 17    08 37 24.7 -04 43 55   0.0053130.9986   132.2    47.6    17.6
2024 03 18    11 37 59.8 -03 12 41   0.0083121.0036   174.7     5.3    17.2
2024 03 19    12 43 10.0 -02 06 22   0.01340 1.0086   167.6    12.3    18.6
...
2024 03 25    13 50 14.7 -00 47 14   0.04818 1.0416   156.6    22.4    21.8
...
2024 04 02    14 00 34.3 -00 34 19   0.09660 1.0912   160.8    17.5    23.2
...
2024 04 17    14 01 02.1 -00 50 11   0.1960  1.1969   169.1     9.1    24.7

M. P. C. Staff               (C) Copyright 2024 MPC           M.P.E.C. 2024-F15





More information about the Iaude mailing list